Location: Benque
(43.2594°N, 0.9178°E)
Time: 02:49:57
(UTC+00:00)

Cosmos 44 - Pass Details

Date: 24 January 2020
Orbit: 595 x 767 km, 65.1° (Epoch: 19 February)

Event Time Altitude Azimuth Distance (km) Brightness Sun altitude
Rises 18:16:58 0° 217° (SW) 2,966 7.4 -14.5°
Reaches altitude 10° 18:19:18 10° 219° (SW) 2,032 6.5 -15.0°
Maximum altitude 18:23:52 73° 304° (WNW) 654 3.2 -15.8°
Enters shadow 18:27:17 17° 28° (NNE) 1,574 4.8 -16.4°
